Home   Weather   Westport   Past weeks
Flag for USA

Past Weather in Westport, Connecticut, USA — Yesterday and Last 2 Weeks

Now
56 °F

Clear.


Feels Like: 53 °F
Forecast: 63 / 55 °F
Wind: 12 mph from Southwest

Location: Sikorsky Memorial Airport

Current Time: Apr 19, 2019 at 2:47:44 am

Latest Report: Apr 19, 2019 at 1:52 am


Visibility: 10 mi

Pressure: 29.86 "Hg

Humidity: 87%

Dew Point: 52 °F

Location of WestportLocation

Past Weather in Westport — Graph

°F

Westport Temperature Yesterday

Maximum temperature yesterday: 55 °F (at 9:52 pm)
Minimum temperature yesterday: 47 °F (at 12:52 am)
Average temperature yesterday: 49 °F

High & Low Weather Summary for the Past Weeks

 TemperatureHumidityPressure
High67 °F (Apr 13, 3:54 pm)100% (Apr 8, 7:52 am)30.53 "Hg (Apr 8, 7:52 am)
Low36 °F (Apr 5, 4:52 am)13% (Apr 4, 6:52 pm)29.31 "Hg (Apr 15, 8:52 am)
Average50 °F72%29.99 "Hg
* Reported Apr 4 12:52 am — Apr 19 12:52 am, Westport. Weather by CustomWeather, © 2019

Note: Actual official high and low records may vary slightly from our data, if they occured in-between our weather recording intervals... More about our weather records

Advertising

Westport Weather History for the Previous 24 Hours

Scroll right to see more
 ConditionsComfort  
Time TempWeatherWind HumidityBarometerVisibility
12:52 am
Fri, Apr 19
55 °FClear.10 mph90%29.88 "Hg10 mi
11:52 pm
Thu, Apr 18
52 °FClear.5 mph93%29.89 "Hg10 mi
10:52 pm54 °FClear.5 mph86%29.91 "Hg10 mi
9:52 pm55 °FClear.5 mph83%29.91 "Hg10 mi
8:52 pm50 °FClear.6 mph93%29.92 "Hg10 mi
7:52 pm51 °FPassing clouds.7 mph92%29.93 "Hg7 mi
6:52 pm51 °FFog.12 mph89%29.93 "Hg6 mi
5:52 pm51 °FLow clouds.15 mph89%29.95 "Hg8 mi
5:38 pm51 °FLow clouds.16 mph89%29.96 "Hg8 mi
4:52 pm50 °FOvercast.17 mph89%29.98 "Hg10 mi
3:52 pm49 °FOvercast.15 mph90%30.03 "Hg10 mi
2:52 pm48 °FLight rain. Overcast.15 mph89%30.07 "Hg9 mi
1:52 pm47 °FLight rain. Overcast.16 mph90%30.09 "Hg7 mi
12:52 pm48 °FLight rain. Fog.15 mph86%30.13 "Hg6 mi
11:52 am49 °FOvercast.12 mph80%30.15 "Hg10 mi
10:52 am48 °FLight rain. Overcast.10 mph83%30.16 "Hg3 mi
9:52 am48 °FOvercast.13 mph80%30.16 "Hg10 mi
7:52 am48 °FOvercast.10 mph80%30.20 "Hg10 mi
6:52 am48 °FOvercast.10 mph74%30.19 "Hg10 mi
5:52 am48 °FOvercast.8 mph71%30.18 "Hg10 mi
4:52 am47 °FMostly cloudy.8 mph80%30.19 "Hg10 mi
3:52 am47 °FLight rain. Overcast.5 mph77%30.22 "Hg10 mi
2:52 am47 °FOvercast.6 mph74%30.22 "Hg10 mi
Weather by CustomWeather, © 2019

See weather overview